Location: Chuathbaluk
(61.5726°N, 159.2454°W)
Time: 14:06:32
(UTC+00:00)

DELFI C3 - Pass Details

Date: 22 January 2021
Orbit: 531 x 550 km, 97.4° (Epoch: 04 March)

Event Time Altitude Azimuth Distance (km) Brightness Sun altitude
Exits shadow 07:33:57 13° 298° (WNW) 1,654 ? -36.2°
Drops below altitude 10° 07:34:54 10° 311° (NW) 1,840 ? -36.3°
Sets 07:37:53 0° 336° (NNW) 2,743 ? -36.7°
